GLOBAL-14 (49469 NORAD) Tracking and Keplerian Element Data

This shows tracking and keplerian element data for the satellite.

Feedback or suggestion? Click here.




ElementValue
Catalog49469
NameGLOBAL-14
Epoch Orbit907
Epoch Day15.73537449
Epoch Year2022
RAAN31.0441
Inclination42.0161
Eccentricity0.0006213
Argument of Perigee316.1313
Mean Anonmoly43.9035
Mean Motion15.45206803
Decay Rate0.00012449
L11 49469U 21106A 22015.73537449 .00012449 00000+0 26133-3 0 9991
L22 49469 42.0161 31.0441 0006213 316.1313 43.9035 15.45206803 9075

Live tracking and technical data element details for GLOBAL-14 (NORAD 49469). GLOBAL-14 can be tracked NOW for your location showing map with azimuth and elevation plus other details from your city location.

Track the satellite on the map from your city or location and see movement details for azimuth, elevation, latitude, longitude, range, height, and movement on the map or in text.







IsCatalogInMostPopularTable: catalog: 49469, numindb: 7
Update: records affected: 1



GetName: 49469 GLOBAL-14

Hit Count: updated at: Thu, 20 Jan 2022 17:16:42 GMT